Terug naar catalogus

THOR ABLESTAR DEB

ActiefLEO
NORAD 336·DEBRIS·🇺🇸 United States

Gelanceerd Jun 29, 1961 vanaf Cape Canaveral Space Force Station

Loading…

Volgende Passages (komende 24 uur)

TLE

VersSource: Space-Track

Epoch: Sep 7, 2026, 07:40 UTC

1 00336U 61015DN  26250.31950334 -.00000004  00000-0  75543-4 0  9991
2 00336  67.0328   2.5535 0071872  76.6306 315.3673 13.69235714250447

Volg THOR ABLESTAR DEB in realtime met AllMySat

Download on the App Store